ITY572 LIRF-LSZH

Flight info

Callsign ITY572
Flight time 1h 16m
Altitude 36000
Route SOVAN DCT AMTEL DCT PEPAG DCT CANNE Z651 KELIP
Aircraft A320/M-SDE3FGHIRWY/LB1

Departure

Time 2026-02-21 04:38
Airport Rome–Fiumicino Leonardo da Vinci International Airport (LIRF)

Arrival

Time 2026-02-21 05:54
Airport Zürich Airport (LSZH)
Time Latitude Longitude Altitude Speed Heading
2026-02-21 04:23 41.79588 12.25919 14 ft 0 kts 295°
2026-02-21 04:26 41.79586 12.25922 14 ft 1 kts 295°
2026-02-21 04:26 41.79579 12.25943 16 ft 3 kts 295°
2026-02-21 04:27 41.79571 12.25965 14 ft 3 kts 308°
2026-02-21 04:27 41.79559 12.25978 16 ft 3 kts
2026-02-21 04:27 41.79541 12.25972 -1 ft 2 kts 25°
2026-02-21 04:27 41.79537 12.25970 34 ft 2 kts 25°
2026-02-21 04:28 41.79553 12.25980 15 ft 3 kts 25°
2026-02-21 04:28 41.79572 12.25992 3 ft 3 kts 25°
2026-02-21 04:28 41.79590 12.26003 18 ft 3 kts 25°
2026-02-21 04:28 41.79608 12.26015 20 ft 3 kts 25°
2026-02-21 04:29 41.79627 12.26027 14 ft 3 kts 25°
2026-02-21 04:29 41.79645 12.26038 14 ft 3 kts 25°
2026-02-21 04:29 41.79663 12.26050 15 ft 3 kts 25°
2026-02-21 04:29 41.79682 12.26061 14 ft 3 kts 25°
2026-02-21 04:30 41.79689 12.26066 16 ft 0 kts 25°
2026-02-21 04:32 41.79710 12.26079 15 ft 7 kts 25°
2026-02-21 04:32 41.79758 12.26077 16 ft 8 kts 321°
2026-02-21 04:33 41.79787 12.26005 16 ft 11 kts 295°
2026-02-21 04:33 41.79818 12.25917 15 ft 10 kts 295°
2026-02-21 04:33 41.79846 12.25840 16 ft 9 kts 295°
2026-02-21 04:33 41.79890 12.25833 14 ft 7 kts 26°
2026-02-21 04:34 41.79948 12.25869 16 ft 12 kts 25°
2026-02-21 04:34 41.80028 12.25919 17 ft 14 kts 25°
2026-02-21 04:34 41.80121 12.25976 16 ft 16 kts 24°
2026-02-21 04:34 41.80228 12.26042 14 ft 18 kts 25°
2026-02-21 04:35 41.80347 12.26116 17 ft 20 kts 25°
2026-02-21 04:35 41.80470 12.26177 16 ft 16 kts
2026-02-21 04:35 41.80540 12.26280 16 ft 18 kts 70°
2026-02-21 04:35 41.80584 12.26442 16 ft 20 kts 69°
2026-02-21 04:36 41.80635 12.26622 17 ft 22 kts 69°
2026-02-21 04:36 41.80679 12.26787 14 ft 15 kts 70°
2026-02-21 04:36 41.80719 12.26930 15 ft 18 kts 70°
2026-02-21 04:36 41.80778 12.27044 13 ft 16 kts 14°
2026-02-21 04:37 41.80890 12.27001 13 ft 18 kts 339°
2026-02-21 04:37 41.80957 12.26927 13 ft 12 kts 268°
2026-02-21 04:37 41.80941 12.26867 14 ft 0 kts 250°
2026-02-21 04:37 41.80925 12.26807 14 ft 32 kts 250°
2026-02-21 04:38 41.80751 12.26175 20 ft 107 kts 250°
2026-02-21 04:38 41.80421 12.24972 19 ft 165 kts 250°
2026-02-21 04:38 41.80025 12.23475 577 ft 169 kts 252°
2026-02-21 04:38 41.79622 12.22018 1337 ft 169 kts 251°
2026-02-21 04:39 41.79250 12.20527 2047 ft 168 kts 266°
2026-02-21 04:39 41.79366 12.19011 2737 ft 162 kts 294°
2026-02-21 04:39 41.79927 12.17742 3388 ft 159 kts 313°
2026-02-21 04:39 41.80665 12.16521 3767 ft 179 kts 311°
2026-02-21 04:40 41.81495 12.15138 4104 ft 200 kts 311°
2026-02-21 04:40 41.82379 12.13651 4755 ft 205 kts 311°
2026-02-21 04:40 41.83266 12.12149 5487 ft 206 kts 311°
2026-02-21 04:40 41.84247 12.10775 6214 ft 204 kts 326°
2026-02-21 04:41 41.85514 12.09906 6773 ft 211 kts 344°
2026-02-21 04:41 41.87005 12.09355 7105 ft 235 kts 345°
2026-02-21 04:41 41.88650 12.08750 7643 ft 251 kts 345°
2026-02-21 04:41 41.90356 12.08133 8512 ft 256 kts 348°
2026-02-21 04:42 41.92110 12.07700 9473 ft 257 kts 350°
2026-02-21 04:42 41.93880 12.07335 10395 ft 260 kts 351°
2026-02-21 04:42 41.95720 12.06980 10743 ft 282 kts 352°
2026-02-21 04:42 41.97735 12.06594 11132 ft 300 kts 352°
2026-02-21 04:43 41.99832 12.06186 11773 ft 309 kts 351°
2026-02-21 04:43 42.01976 12.05763 12512 ft 314 kts 352°
2026-02-21 04:43 42.04156 12.05329 13294 ft 318 kts 352°
2026-02-21 04:43 42.06360 12.04888 14048 ft 322 kts 352°
2026-02-21 04:44 42.08596 12.04439 14723 ft 326 kts 352°
2026-02-21 04:44 42.10091 12.04138 15154 ft 329 kts 352°
2026-02-21 04:44 42.12371 12.03677 15807 ft 333 kts 351°
2026-02-21 04:44 42.14686 12.03209 16465 ft 338 kts 351°
2026-02-21 04:45 42.17024 12.02736 17122 ft 342 kts 351°
2026-02-21 04:45 42.19392 12.02256 17775 ft 346 kts 351°
2026-02-21 04:45 42.21787 12.01770 18416 ft 350 kts 350°
2026-02-21 04:45 42.24177 12.01285 18995 ft 353 kts 350°
2026-02-21 04:46 42.26622 12.00788 19604 ft 356 kts 350°
2026-02-21 04:46 42.29074 12.00290 20237 ft 357 kts 350°
2026-02-21 04:46 42.31544 11.99788 20878 ft 359 kts 350°
2026-02-21 04:47 42.36515 11.98779 22147 ft 363 kts 350°
2026-02-21 04:47 42.39023 11.98270 22770 ft 365 kts 350°
2026-02-21 04:47 42.41542 11.97755 23384 ft 367 kts 350°
2026-02-21 04:47 42.44075 11.97240 23929 ft 369 kts 350°
2026-02-21 04:48 42.46623 11.96724 24394 ft 372 kts 350°
2026-02-21 04:48 42.49188 11.96201 24838 ft 374 kts 350°
2026-02-21 04:48 42.51776 11.95673 25266 ft 377 kts 350°
2026-02-21 04:48 42.54376 11.95144 25687 ft 379 kts 349°
2026-02-21 04:49 42.57000 11.94609 26099 ft 382 kts 349°
2026-02-21 04:49 42.59602 11.94078 26493 ft 384 kts 349°
2026-02-21 04:49 42.62258 11.93536 26907 ft 386 kts 349°
2026-02-21 04:49 42.64922 11.92991 27321 ft 388 kts 349°
2026-02-21 04:50 42.67605 11.92439 27707 ft 391 kts 349°
2026-02-21 04:50 42.70299 11.91883 28093 ft 393 kts 349°
2026-02-21 04:50 42.73012 11.91324 28483 ft 395 kts 349°
2026-02-21 04:50 42.75741 11.90762 28858 ft 397 kts 349°
2026-02-21 04:51 42.78480 11.90198 29203 ft 399 kts 349°
2026-02-21 04:51 42.81238 11.89617 29565 ft 401 kts 347°
2026-02-21 04:51 42.83931 11.88616 29859 ft 403 kts 338°
2026-02-21 04:51 42.86465 11.86986 30162 ft 404 kts 331°
2026-02-21 04:52 42.88950 11.85158 30444 ft 406 kts 331°
2026-02-21 04:52 42.91445 11.83332 30685 ft 408 kts 331°
2026-02-21 04:52 42.93952 11.81504 30942 ft 409 kts 331°
2026-02-21 04:52 42.96466 11.79670 31194 ft 410 kts 331°
2026-02-21 04:53 42.98990 11.77828 31432 ft 412 kts 331°
2026-02-21 04:53 43.01517 11.75982 31726 ft 411 kts 331°
2026-02-21 04:53 43.04028 11.74141 32056 ft 410 kts 330°
2026-02-21 04:53 43.06551 11.72286 32302 ft 412 kts 330°
2026-02-21 04:54 43.09075 11.70430 32584 ft 412 kts 330°
2026-02-21 04:54 43.11600 11.68570 32921 ft 411 kts 330°
2026-02-21 04:54 43.14079 11.66743 33250 ft 409 kts 330°
2026-02-21 04:54 43.16577 11.64904 33705 ft 405 kts 330°
2026-02-21 04:55 43.19049 11.63080 34125 ft 402 kts 330°
2026-02-21 04:55 43.21507 11.61258 34463 ft 400 kts 330°
2026-02-21 04:55 43.23918 11.59363 34779 ft 399 kts 328°
2026-02-21 04:55 43.26277 11.57367 35092 ft 398 kts 327°
2026-02-21 04:56 43.28609 11.55310 35386 ft 397 kts 327°
2026-02-21 04:56 43.30921 11.53239 35668 ft 397 kts 327°
2026-02-21 04:56 43.33239 11.51164 35940 ft 396 kts 327°
2026-02-21 04:56 43.35526 11.49130 36130 ft 397 kts 327°
2026-02-21 04:57 43.40148 11.45071 36217 ft 393 kts 327°
2026-02-21 04:57 43.44767 11.41047 36236 ft 392 kts 328°
2026-02-21 04:58 43.49383 11.37019 36240 ft 392 kts 327°
2026-02-21 04:58 43.53986 11.32982 36233 ft 392 kts 327°
2026-02-21 04:59 43.58557 11.28960 36227 ft 392 kts 327°
2026-02-21 04:59 43.63146 11.24922 36238 ft 390 kts 327°
2026-02-21 05:00 43.67707 11.20903 36251 ft 388 kts 327°
2026-02-21 05:00 43.72252 11.16883 36244 ft 387 kts 327°
2026-02-21 05:01 43.76790 11.12859 36240 ft 387 kts 327°
2026-02-21 05:01 43.81320 11.08848 36235 ft 386 kts 327°
2026-02-21 05:02 43.85836 11.04837 36231 ft 386 kts 327°
2026-02-21 05:02 43.90350 11.00815 36250 ft 385 kts 327°
2026-02-21 05:03 43.94831 10.96815 36248 ft 385 kts 327°
2026-02-21 05:03 43.99341 10.92791 36246 ft 385 kts 327°
2026-02-21 05:04 44.03849 10.88758 36250 ft 385 kts 327°
2026-02-21 05:04 44.08354 10.84718 36246 ft 385 kts 327°
2026-02-21 05:05 44.12865 10.80666 36252 ft 385 kts 327°
2026-02-21 05:05 44.17364 10.76608 36256 ft 385 kts 327°
2026-02-21 05:06 44.21828 10.72580 36262 ft 384 kts 327°
2026-02-21 05:06 44.26319 10.68526 36254 ft 384 kts 327°
2026-02-21 05:07 44.30802 10.64468 36252 ft 384 kts 327°
2026-02-21 05:07 44.35288 10.60406 36259 ft 383 kts 327°
2026-02-21 05:08 44.39767 10.56340 36242 ft 383 kts 327°
2026-02-21 05:08 44.44198 10.52302 36269 ft 381 kts 327°
2026-02-21 05:09 44.48636 10.48255 36274 ft 380 kts 327°
2026-02-21 05:09 44.53065 10.44205 36288 ft 379 kts 327°
2026-02-21 05:10 44.57477 10.40167 36279 ft 378 kts 327°
2026-02-21 05:10 44.61879 10.36133 36273 ft 377 kts 327°
2026-02-21 05:11 44.66268 10.32104 36269 ft 377 kts 327°
2026-02-21 05:11 44.70623 10.28094 36257 ft 376 kts 327°
2026-02-21 05:12 44.75005 10.24055 36243 ft 376 kts 327°
2026-02-21 05:12 44.79390 10.20000 36234 ft 377 kts 327°
2026-02-21 05:13 44.83780 10.15936 36237 ft 377 kts 327°
2026-02-21 05:13 44.88177 10.11876 36232 ft 378 kts 327°
2026-02-21 05:14 44.92570 10.07799 36230 ft 378 kts 327°
2026-02-21 05:14 44.96936 10.03725 36245 ft 378 kts 327°
2026-02-21 05:15 45.01332 9.99618 36245 ft 379 kts 327°
2026-02-21 05:15 45.05724 9.95521 36240 ft 378 kts 326°
2026-02-21 05:16 45.10106 9.91430 36249 ft 377 kts 326°
2026-02-21 05:16 45.14482 9.87339 36253 ft 376 kts 326°
2026-02-21 05:17 45.18840 9.83243 36275 ft 376 kts 326°
2026-02-21 05:17 45.23193 9.79140 36265 ft 375 kts 326°
2026-02-21 05:18 45.27536 9.75043 36251 ft 375 kts 326°
2026-02-21 05:18 45.31850 9.70968 36218 ft 375 kts 326°
2026-02-21 05:19 45.36191 9.66863 36184 ft 374 kts 326°
2026-02-21 05:19 45.40525 9.62755 36170 ft 374 kts 326°
2026-02-21 05:20 45.44850 9.58643 36138 ft 374 kts 326°
2026-02-21 05:20 45.49169 9.54530 36124 ft 373 kts 326°
2026-02-21 05:21 45.53489 9.50414 36122 ft 373 kts 326°
2026-02-21 05:21 45.57812 9.46293 36128 ft 373 kts 326°
2026-02-21 05:22 45.62099 9.42190 36131 ft 373 kts 326°
2026-02-21 05:22 45.66415 9.38050 36132 ft 373 kts 326°
2026-02-21 05:23 45.68571 9.35984 36264 ft 373 kts 326°
2026-02-21 05:23 45.70732 9.33909 36246 ft 373 kts 326°
2026-02-21 05:23 45.75045 9.29753 36250 ft 373 kts 326°
2026-02-21 05:24 45.79335 9.25616 36260 ft 373 kts 326°
2026-02-21 05:24 45.83646 9.21451 36264 ft 374 kts 326°
2026-02-21 05:25 45.87960 9.17277 36267 ft 374 kts 326°
2026-02-21 05:25 45.92282 9.13089 36268 ft 374 kts 326°
2026-02-21 05:26 45.95869 9.09602 36235 ft 374 kts 326°
2026-02-21 05:27 46.02976 9.02480 36259 ft 375 kts 324°
2026-02-21 05:27 46.07189 8.98041 36263 ft 376 kts 324°
2026-02-21 05:28 46.11422 8.93595 36259 ft 377 kts 324°
2026-02-21 05:28 46.15791 8.89434 36258 ft 377 kts 334°
2026-02-21 05:29 46.20859 8.87475 36257 ft 382 kts 351°
2026-02-21 05:29 46.26154 8.86703 36267 ft 383 kts 350°
2026-02-21 05:30 46.31460 8.85902 36258 ft 383 kts 350°
2026-02-21 05:30 46.36734 8.85100 36265 ft 384 kts 350°
2026-02-21 05:31 46.42043 8.84297 36293 ft 384 kts 351°
2026-02-21 05:31 46.47353 8.83501 36321 ft 383 kts 351°
2026-02-21 05:32 46.52647 8.82708 36322 ft 382 kts 351°
2026-02-21 05:32 46.57935 8.81911 36323 ft 382 kts 351°
2026-02-21 05:33 46.63222 8.81106 36354 ft 382 kts 350°
2026-02-21 05:33 46.68502 8.80300 36367 ft 381 kts 350°
2026-02-21 05:34 46.72886 8.79634 36377 ft 380 kts 350°
2026-02-21 05:34 46.79004 8.78703 36372 ft 380 kts 350°
2026-02-21 05:35 46.84258 8.77900 36372 ft 380 kts 350°
2026-02-21 05:35 46.89515 8.77092 36401 ft 379 kts 349°
2026-02-21 05:36 46.94743 8.76297 36188 ft 371 kts 349°
2026-02-21 05:36 46.96427 8.76043 35918 ft 366 kts 349°
2026-02-21 05:36 46.98939 8.75658 35528 ft 359 kts 349°
2026-02-21 05:36 47.01393 8.75273 35141 ft 352 kts 349°
2026-02-21 05:37 47.03804 8.74891 34790 ft 345 kts 349°
2026-02-21 05:37 47.06163 8.74515 34415 ft 338 kts 348°
2026-02-21 05:37 47.08477 8.74080 33953 ft 331 kts 346°
2026-02-21 05:37 47.10732 8.73527 33480 ft 327 kts 345°
2026-02-21 05:38 47.12960 8.72916 33004 ft 323 kts 345°
2026-02-21 05:38 47.15155 8.72296 32505 ft 320 kts 345°
2026-02-21 05:38 47.17332 8.71686 32023 ft 317 kts 345°
2026-02-21 05:38 47.19521 8.71062 31058 ft 325 kts 345°
2026-02-21 05:39 47.21733 8.70406 30298 ft 329 kts 345°
2026-02-21 05:39 47.24002 8.69719 29570 ft 328 kts 345°
2026-02-21 05:39 47.26224 8.69032 28932 ft 325 kts 345°
2026-02-21 05:39 47.28409 8.68359 28298 ft 324 kts 345°
2026-02-21 05:40 47.30588 8.67695 27614 ft 313 kts 345°
2026-02-21 05:40 47.32707 8.67212 26962 ft 307 kts 355°
2026-02-21 05:40 47.34825 8.67606 26316 ft 307 kts
2026-02-21 05:40 47.36916 8.68203 25679 ft 304 kts
2026-02-21 05:41 47.38988 8.68804 25062 ft 303 kts
2026-02-21 05:41 47.41050 8.69396 24457 ft 301 kts
2026-02-21 05:41 47.43072 8.70305 23856 ft 309 kts 17°
2026-02-21 05:41 47.44956 8.71915 23156 ft 314 kts 23°
2026-02-21 05:42 47.46793 8.73670 22461 ft 313 kts 24°
2026-02-21 05:42 47.48616 8.75429 21803 ft 313 kts 24°
2026-02-21 05:42 47.50432 8.77185 21128 ft 310 kts 24°
2026-02-21 05:42 47.52225 8.78926 20398 ft 307 kts 24°
2026-02-21 05:43 47.54003 8.80655 19689 ft 305 kts 24°
2026-02-21 05:43 47.55770 8.82367 18984 ft 303 kts 24°
2026-02-21 05:43 47.57517 8.84099 18254 ft 304 kts 29°
2026-02-21 05:43 47.58914 8.86541 17507 ft 322 kts 54°
2026-02-21 05:44 47.59573 8.89776 16790 ft 338 kts 79°
2026-02-21 05:44 47.59442 8.93280 16091 ft 344 kts 92°
2026-02-21 05:44 47.59097 8.96783 15429 ft 342 kts 94°
2026-02-21 05:44 47.58751 9.00239 14817 ft 337 kts 94°
2026-02-21 05:45 47.58421 9.03658 14223 ft 333 kts 94°
2026-02-21 05:45 47.57998 9.07014 13542 ft 332 kts 108°
2026-02-21 05:45 47.56873 9.09921 12910 ft 329 kts 134°
2026-02-21 05:45 47.55087 9.11949 12156 ft 322 kts 159°
2026-02-21 05:46 47.52963 9.12761 11387 ft 311 kts 181°
2026-02-21 05:46 47.50814 9.12928 10637 ft 306 kts 188°
2026-02-21 05:46 47.48819 9.12224 9862 ft 288 kts 213°
2026-02-21 05:46 47.47338 9.10407 9060 ft 272 kts 239°
2026-02-21 05:47 47.46625 9.07911 8283 ft 264 kts 261°
2026-02-21 05:47 47.46341 9.05281 8080 ft 252 kts 264°
2026-02-21 05:47 47.46097 9.02777 7842 ft 244 kts 264°
2026-02-21 05:47 47.45854 9.00308 7482 ft 239 kts 264°
2026-02-21 05:48 47.45620 8.97951 7133 ft 225 kts 264°
2026-02-21 05:48 47.45396 8.95735 6788 ft 211 kts 264°
2026-02-21 05:48 47.45183 8.93659 6409 ft 203 kts 263°
2026-02-21 05:48 47.44981 8.91596 6100 ft 201 kts 263°
2026-02-21 05:49 47.44793 8.89575 5776 ft 198 kts 263°
2026-02-21 05:49 47.44622 8.87565 5494 ft 193 kts 264°
2026-02-21 05:49 47.44470 8.85642 5335 ft 185 kts 264°
2026-02-21 05:49 47.44327 8.83754 5075 ft 183 kts 264°
2026-02-21 05:50 47.44199 8.81915 4799 ft 179 kts 263°
2026-02-21 05:50 47.44117 8.80092 4565 ft 176 kts 268°
2026-02-21 05:50 47.44165 8.78317 4399 ft 168 kts 271°
2026-02-21 05:50 47.44261 8.76641 4255 ft 162 kts 272°
2026-02-21 05:51 47.44370 8.75014 4117 ft 158 kts 272°
2026-02-21 05:51 47.44483 8.73406 4038 ft 156 kts 273°
2026-02-21 05:51 47.44598 8.71811 3957 ft 157 kts 273°
2026-02-21 05:51 47.44714 8.70195 3568 ft 158 kts 272°
2026-02-21 05:52 47.44829 8.68623 3267 ft 148 kts 271°
2026-02-21 05:52 47.45035 8.65778 2837 ft 131 kts 270°
2026-02-21 05:52 47.45129 8.64467 2606 ft 129 kts 270°
2026-02-21 05:53 47.45223 8.63153 2397 ft 128 kts 271°
2026-02-21 05:53 47.45317 8.61837 2178 ft 129 kts 273°
2026-02-21 05:53 47.45412 8.60517 1974 ft 129 kts 272°
2026-02-21 05:53 47.45508 8.59201 1774 ft 129 kts 272°
2026-02-21 05:54 47.45602 8.57883 1594 ft 128 kts 271°
2026-02-21 05:54 47.45695 8.56585 1424 ft 125 kts 270°
2026-02-21 05:54 47.45763 8.55580 1407 ft 59 kts 276°
2026-02-21 05:54 47.45794 8.55116 1401 ft 42 kts 274°
2026-02-21 05:55 47.45824 8.54727 1397 ft 27 kts 276°
2026-02-21 05:55 47.45807 8.54458 1389 ft 26 kts 252°
2026-02-21 05:55 47.45764 8.54293 1386 ft 11 kts 246°
2026-02-21 05:55 47.45703 8.54198 1385 ft 14 kts 191°
2026-02-21 05:56 47.45616 8.54273 1386 ft 16 kts 117°
2026-02-21 05:56 47.45578 8.54437 1387 ft 18 kts 108°
2026-02-21 05:56 47.45551 8.54560 1390 ft 10 kts 108°
2026-02-21 05:56 47.45533 8.54640 1390 ft 0 kts 107°
2026-02-21 05:57 47.45530 8.54655 1387 ft 6 kts 107°
2026-02-21 05:57 47.45513 8.54731 1397 ft 7 kts 108°
2026-02-21 05:57 47.45498 8.54798 1395 ft 6 kts 108°
2026-02-21 05:57 47.45492 8.54825 1391 ft 3 kts 108°
2026-02-21 05:58 47.45467 8.54938 1398 ft 18 kts 109°
2026-02-21 05:58 47.45425 8.55110 1401 ft 17 kts 110°
2026-02-21 05:58 47.45388 8.55261 1402 ft 14 kts 110°
2026-02-21 05:58 47.45359 8.55370 1405 ft 9 kts 117°
2026-02-21 05:59 47.45327 8.55456 1410 ft 13 kts 118°
2026-02-21 05:59 47.45352 8.55517 1409 ft 5 kts
2026-02-21 05:59 47.45422 8.55477 1412 ft 15 kts 335°
2026-02-21 05:59 47.45512 8.55447 1403 ft 12 kts 30°
2026-02-21 06:00 47.45523 8.55539 1408 ft 9 kts 97°
2026-02-21 06:00 47.45515 8.55656 1407 ft 12 kts 96°
2026-02-21 06:00 47.45506 8.55776 1411 ft 11 kts 96°
2026-02-21 06:00 47.45499 8.55881 1407 ft 10 kts 96°
2026-02-21 06:01 47.45491 8.55986 1407 ft 13 kts 96°
2026-02-21 06:01 47.45470 8.56073 1411 ft 7 kts 175°
2026-02-21 06:01 47.45419 8.56063 1407 ft 3 kts 186°
2026-02-21 06:01 47.45410 8.56061 1410 ft 0 kts 186°